This is the latest recevied weather packets stored in our database for station/object KC0UFP. If no packets are shown the sender has not sent any weather packets the latest 10 day(s).
| Time | Temp. | Humidity | Pressure | Rain* | Wind** | Luminosity | Snow |
|---|---|---|---|---|---|---|---|
| 1777927899 | 26.67° C | 36% | 1008.4 hPa | 0 mm | - | 749 W/m² | - |
| 1777927597 | 26.67° C | 37% | 1008.3 hPa | 0 mm | - | 764 W/m² | - |
| 1777927296 | 26.67° C | 36% | 1008.4 hPa | 0 mm | - | 771 W/m² | - |
| 1777926994 | 26.67° C | 36% | 1008.5 hPa | 0 mm | - | 794 W/m² | - |
| 1777926692 | 26.11° C | 37% | 1008.3 hPa | 0 mm | - | 804 W/m² | - |
| 1777926392 | 26.67° C | 37% | 1008.6 hPa | 0 mm | - | 818 W/m² | - |
| 1777926089 | 26.67° C | 37% | 1008.7 hPa | 0 mm | - | 827 W/m² | - |
| 1777925785 | 26.67° C | 37% | 1008.7 hPa | 0 mm | - | 823 W/m² | - |
| 1777925484 | 26.67° C | 37% | 1008.9 hPa | 0 mm | - | 856 W/m² | - |
| 1777925180 | 26.11° C | 38% | 1009.1 hPa | 0 mm | - | 859 W/m² | - |
| 1777924877 | 26.67° C | 37% | 1008.8 hPa | 0 mm | - | 876 W/m² | - |
| 1777924573 | 26.11° C | 39% | 1008.9 hPa | 0 mm | - | 886 W/m² | - |
| 1777924269 | 26.11° C | 37% | 1008.9 hPa | 0 mm | - | 899 W/m² | - |
| 1777923966 | 26.11° C | 37% | 1009 hPa | 0 mm | - | 908 W/m² | - |
| 1777923661 | 26.11° C | 38% | 1009 hPa | 0 mm | - | 926 W/m² | - |
| 1777923358 | 26.67° C | 37% | 1009.2 hPa | 0 mm | - | 932 W/m² | - |
| 1777923057 | 26.67° C | 38% | 1009.2 hPa | 0 mm | - | 942 W/m² | - |
| 1777922755 | 26.11° C | 37% | 1009.2 hPa | 0 mm | - | 954 W/m² | - |
| 1777922452 | 26.11° C | 38% | 1009.1 hPa | 0 mm | - | 957 W/m² | - |
| 1777922150 | 26.67° C | 37% | 1009.2 hPa | 0 mm | - | 964 W/m² | - |
| 1777921846 | 26.11° C | 36% | 1009.2 hPa | 0 mm | - | 966 W/m² | - |
| 1777921543 | 26.11° C | 38% | 1009.2 hPa | 0 mm | - | 977 W/m² | - |
| 1777921239 | 26.11° C | 36% | 1009.4 hPa | 0 mm | - | 929 W/m² | - |
| 1777920936 | 25.56° C | 38% | 1009.6 hPa | 0 mm | - | 978 W/m² | - |
| 1777920632 | 26.11° C | 39% | 1009.6 hPa | 0 mm | - | 990 W/m² | - |
* Rain latest hour (hover to see other rain measurements)
** Current wind speed in m/s (hover to see current wind gust speed)